Zurück zum Katalog

CZ-6A DEB

AktivSSO
NORAD 57578·DEBRIS·🇨🇳 China

Gestartet Nov 11, 2022 von Taiyuan Satellite Launch Center

Loading…

Nächste Überflüge (nächste 24 Stunden)

TLE

AlterndSource: Space-Track

Epoche: Sep 9, 2026, 22:56 UTC

1 57578U 22151AHV 26252.95615413  .00000970  00000-0  36914-3 0  9996
2 57578  98.8462 306.9091 0046616  93.9647 266.6867 14.32652715176269

Verfolge CZ-6A DEB in Echtzeit mit AllMySat

Download on the App Store